Year,Month,Day,Hour,Minute,Value (Times are PST for temperature in C)
2018,06,18,00,00,19.90
2018,06,18,00,01,19.90
2018,06,18,00,02,19.90
2018,06,18,00,03,19.90
2018,06,18,00,04,19.90
2018,06,18,00,05,19.90
2018,06,18,00,06,19.90
2018,06,18,00,07,19.90
2018,06,18,00,08,19.90
2018,06,18,00,09,20.00
2018,06,18,00,10,20.10
2018,06,18,00,11,20.10
2018,06,18,00,12,20.10
2018,06,18,00,13,20.10
2018,06,18,00,14,20.20
2018,06,18,00,15,20.20
2018,06,18,00,16,20.20
2018,06,18,00,17,20.20
2018,06,18,00,18,20.20
2018,06,18,00,19,20.20
2018,06,18,00,20,20.30
2018,06,18,00,21,20.30
2018,06,18,00,22,20.30
2018,06,18,00,23,20.30
2018,06,18,00,24,20.30
2018,06,18,00,25,20.30
2018,06,18,00,26,20.30
2018,06,18,00,27,20.30
2018,06,18,00,28,20.30
2018,06,18,00,29,20.30
2018,06,18,00,30,20.30
2018,06,18,00,31,20.20
2018,06,18,00,32,20.20
2018,06,18,00,33,20.20
2018,06,18,00,34,20.20
2018,06,18,00,35,20.20
2018,06,18,00,36,20.20
2018,06,18,00,37,20.20
2018,06,18,00,38,20.20
2018,06,18,00,39,20.20
2018,06,18,00,40,20.20
2018,06,18,00,41,20.20
2018,06,18,00,42,20.20
2018,06,18,00,43,20.20
2018,06,18,00,44,20.20
2018,06,18,00,45,20.20
2018,06,18,00,46,20.10
2018,06,18,00,47,20.10
2018,06,18,00,48,20.10
2018,06,18,00,49,20.10
2018,06,18,00,50,20.00
2018,06,18,00,51,19.90
2018,06,18,00,52,19.90
2018,06,18,00,53,19.90
2018,06,18,00,54,19.90
2018,06,18,00,55,19.90
2018,06,18,00,56,19.90
2018,06,18,00,57,19.90
2018,06,18,00,58,19.90
2018,06,18,00,59,19.90
2018,06,18,01,00,19.90
2018,06,18,01,01,19.80
2018,06,18,01,02,19.80
2018,06,18,01,03,19.80
2018,06,18,01,04,19.80
2018,06,18,01,05,19.70
2018,06,18,01,06,19.70
2018,06,18,01,07,19.70
2018,06,18,01,08,19.60
2018,06,18,01,09,19.60
2018,06,18,01,10,19.60
2018,06,18,01,11,19.60
2018,06,18,01,12,19.50
2018,06,18,01,13,19.50
2018,06,18,01,14,19.50
2018,06,18,01,15,19.50
2018,06,18,01,16,19.40
2018,06,18,01,17,19.40
2018,06,18,01,18,19.40
2018,06,18,01,19,19.30
2018,06,18,01,20,19.30
2018,06,18,01,21,19.30
2018,06,18,01,22,19.20
2018,06,18,01,23,19.20
2018,06,18,01,24,19.10
2018,06,18,01,25,19.10
2018,06,18,01,26,19.10
2018,06,18,01,27,19.10
2018,06,18,01,28,19.10
2018,06,18,01,29,19.10
2018,06,18,01,30,19.10
2018,06,18,01,31,19.10
2018,06,18,01,32,19.10
2018,06,18,01,33,19.10
2018,06,18,01,34,19.10
2018,06,18,01,35,19.10
2018,06,18,01,36,19.10
2018,06,18,01,37,19.10
2018,06,18,01,38,19.10
2018,06,18,01,39,19.10
2018,06,18,01,40,19.10
2018,06,18,01,41,19.00
2018,06,18,01,42,18.90
2018,06,18,01,43,18.90
2018,06,18,01,44,18.90
2018,06,18,01,45,18.90
2018,06,18,01,46,18.90
2018,06,18,01,47,18.90
2018,06,18,01,48,18.80
2018,06,18,01,49,18.80
2018,06,18,01,50,18.70
2018,06,18,01,51,18.70
2018,06,18,01,52,18.70
2018,06,18,01,53,18.60
2018,06,18,01,54,18.60
2018,06,18,01,55,18.50
2018,06,18,01,56,18.50
2018,06,18,01,57,18.50
2018,06,18,01,58,18.40
2018,06,18,01,59,18.40
2018,06,18,02,00,18.30
2018,06,18,02,01,18.30
2018,06,18,02,02,18.30
2018,06,18,02,03,18.20
2018,06,18,02,04,18.20
2018,06,18,02,05,18.20
2018,06,18,02,06,18.20
2018,06,18,02,07,18.20
2018,06,18,02,08,18.20
2018,06,18,02,09,18.20
2018,06,18,02,10,18.10
2018,06,18,02,11,18.10
2018,06,18,02,12,18.10
2018,06,18,02,13,18.00
2018,06,18,02,14,17.90
2018,06,18,02,15,17.90
2018,06,18,02,16,17.90
2018,06,18,02,17,17.90
2018,06,18,02,18,17.90
2018,06,18,02,19,17.90
2018,06,18,02,20,17.80
2018,06,18,02,21,17.80
2018,06,18,02,22,17.80
2018,06,18,02,23,17.70
2018,06,18,02,24,17.60
2018,06,18,02,25,17.60
2018,06,18,02,26,17.50
2018,06,18,02,27,17.50
2018,06,18,02,28,17.50
2018,06,18,02,29,17.40
2018,06,18,02,30,17.40
2018,06,18,02,31,17.30
2018,06,18,02,32,17.30
2018,06,18,02,33,17.30
2018,06,18,02,34,17.30
2018,06,18,02,35,17.30
2018,06,18,02,36,17.20
2018,06,18,02,37,17.20
2018,06,18,02,38,17.10
2018,06,18,02,39,17.10
2018,06,18,02,40,17.00
2018,06,18,02,41,17.00
2018,06,18,02,42,16.90
2018,06,18,02,43,16.90
2018,06,18,02,44,16.80
2018,06,18,02,45,16.80
2018,06,18,02,46,16.70
2018,06,18,02,47,16.70
2018,06,18,02,48,16.70
2018,06,18,02,49,16.60
2018,06,18,02,50,16.60
2018,06,18,02,51,16.60
2018,06,18,02,52,16.50
2018,06,18,02,53,16.40
2018,06,18,02,54,16.40
2018,06,18,02,55,16.40
2018,06,18,02,56,16.40
2018,06,18,02,57,16.40
2018,06,18,02,58,16.40
2018,06,18,02,59,16.40
2018,06,18,03,00,16.40
2018,06,18,03,01,16.40
2018,06,18,03,02,16.40
2018,06,18,03,03,16.40
2018,06,18,03,04,16.40
2018,06,18,03,05,16.40
2018,06,18,03,06,16.40
2018,06,18,03,07,16.30
2018,06,18,03,08,16.30
2018,06,18,03,09,16.30
2018,06,18,03,10,16.30
2018,06,18,03,11,16.30
2018,06,18,03,12,16.20
2018,06,18,03,13,16.20
2018,06,18,03,14,16.20
2018,06,18,03,15,16.20
2018,06,18,03,16,16.10
2018,06,18,03,17,16.10
2018,06,18,03,18,16.10
2018,06,18,03,19,16.10
2018,06,18,03,20,16.10
2018,06,18,03,21,16.10
2018,06,18,03,22,16.10
2018,06,18,03,23,16.10
2018,06,18,03,24,16.00
2018,06,18,03,25,15.90
2018,06,18,03,26,15.90
2018,06,18,03,27,15.90
2018,06,18,03,28,15.90
2018,06,18,03,29,15.90
2018,06,18,03,30,16.10
2018,06,18,03,31,16.10
2018,06,18,03,32,16.10
2018,06,18,03,33,16.10
2018,06,18,03,34,16.10
2018,06,18,03,35,16.10
2018,06,18,03,36,16.10
2018,06,18,03,37,16.10
2018,06,18,03,38,16.20
2018,06,18,03,39,16.20
2018,06,18,03,40,16.20
2018,06,18,03,41,16.20
2018,06,18,03,42,16.20
2018,06,18,03,43,16.20
2018,06,18,03,44,16.20
2018,06,18,03,45,16.20
2018,06,18,03,46,16.20
2018,06,18,03,47,16.30
2018,06,18,03,48,16.30
2018,06,18,03,49,16.30
2018,06,18,03,50,16.30
2018,06,18,03,51,16.30
2018,06,18,03,52,16.40
2018,06,18,03,53,16.40
2018,06,18,03,54,16.40
2018,06,18,03,55,16.40
2018,06,18,03,56,16.40
2018,06,18,03,57,16.40
2018,06,18,03,58,16.30
2018,06,18,03,59,16.30
2018,06,18,04,00,16.30
2018,06,18,04,01,16.20
2018,06,18,04,02,16.20
2018,06,18,04,03,16.20
2018,06,18,04,04,16.10
2018,06,18,04,05,16.10
2018,06,18,04,06,16.10
2018,06,18,04,07,16.10
2018,06,18,04,08,16.00
2018,06,18,04,09,15.90
2018,06,18,04,10,15.90
2018,06,18,04,11,15.80
2018,06,18,04,12,15.80
2018,06,18,04,13,15.80
2018,06,18,04,14,15.80
2018,06,18,04,15,15.80
2018,06,18,04,16,15.80
2018,06,18,04,17,15.80
2018,06,18,04,18,15.80
2018,06,18,04,19,15.70
2018,06,18,04,20,15.70
2018,06,18,04,21,15.60
2018,06,18,04,22,15.60
2018,06,18,04,23,15.50
2018,06,18,04,24,15.50
2018,06,18,04,25,15.40
2018,06,18,04,26,15.40
2018,06,18,04,27,15.30
2018,06,18,04,28,15.30
2018,06,18,04,29,15.30
2018,06,18,04,30,15.30
2018,06,18,04,31,15.30
2018,06,18,04,32,15.30
2018,06,18,04,33,15.20
2018,06,18,04,34,15.20
2018,06,18,04,35,15.20
2018,06,18,04,36,15.20
2018,06,18,04,37,15.20
2018,06,18,04,38,15.20
2018,06,18,04,39,15.20
2018,06,18,04,40,15.20
2018,06,18,04,41,15.10
2018,06,18,04,42,15.10
2018,06,18,04,43,15.10
2018,06,18,04,44,15.00
2018,06,18,04,45,15.00
2018,06,18,04,46,14.90
2018,06,18,04,47,14.90
2018,06,18,04,48,14.90
2018,06,18,04,49,14.80
2018,06,18,04,50,14.80
2018,06,18,04,51,14.80
2018,06,18,04,52,14.80
2018,06,18,04,53,14.80
2018,06,18,04,54,14.70
2018,06,18,04,55,14.70
2018,06,18,04,56,14.70
2018,06,18,04,57,14.60
2018,06,18,04,58,14.60
2018,06,18,04,59,14.60
2018,06,18,05,00,14.60
2018,06,18,05,01,14.50
2018,06,18,05,02,14.50
2018,06,18,05,03,14.50
2018,06,18,05,04,14.40
2018,06,18,05,05,14.40
2018,06,18,05,06,14.30
2018,06,18,05,07,14.30
2018,06,18,05,08,14.30
2018,06,18,05,09,14.20
2018,06,18,05,10,14.20
2018,06,18,05,11,14.20
2018,06,18,05,12,14.20
2018,06,18,05,13,14.20
2018,06,18,05,14,14.20
2018,06,18,05,15,14.10
2018,06,18,05,16,14.10
2018,06,18,05,17,14.10
2018,06,18,05,18,14.10
2018,06,18,05,19,14.10
2018,06,18,05,20,14.10
2018,06,18,05,21,14.00
2018,06,18,05,22,14.00
2018,06,18,05,23,14.00
2018,06,18,05,24,14.00
2018,06,18,05,25,14.10
2018,06,18,05,26,14.10
2018,06,18,05,27,14.10
2018,06,18,05,28,14.10
2018,06,18,05,29,14.00
2018,06,18,05,30,14.00
2018,06,18,05,31,14.00
2018,06,18,05,32,14.00
2018,06,18,05,33,14.00
2018,06,18,05,34,14.00
2018,06,18,05,35,14.00
2018,06,18,05,36,14.00
2018,06,18,05,37,14.00
2018,06,18,05,38,13.90
2018,06,18,05,39,13.90
2018,06,18,05,40,13.90
2018,06,18,05,41,13.90
2018,06,18,05,42,13.90
2018,06,18,05,43,13.90
2018,06,18,05,44,13.90
2018,06,18,05,45,13.90
2018,06,18,05,46,13.90
2018,06,18,05,47,13.90
2018,06,18,05,48,13.90
2018,06,18,05,49,13.90
2018,06,18,05,50,13.90
2018,06,18,05,51,14.00
2018,06,18,05,52,14.00
2018,06,18,05,53,14.00
2018,06,18,05,54,14.10
2018,06,18,05,55,14.10
2018,06,18,05,56,14.10
2018,06,18,05,57,14.20
2018,06,18,05,58,14.20
2018,06,18,05,59,14.20
2018,06,18,06,00,14.20
2018,06,18,06,01,14.20
2018,06,18,06,02,14.30
2018,06,18,06,03,14.40
2018,06,18,06,04,14.50
2018,06,18,06,05,14.50
2018,06,18,06,06,14.60
2018,06,18,06,07,14.70
2018,06,18,06,08,14.70
2018,06,18,06,09,14.80
2018,06,18,06,10,14.80
2018,06,18,06,11,14.80
2018,06,18,06,12,14.80
2018,06,18,06,13,14.90
2018,06,18,06,14,15.00
2018,06,18,06,15,15.10
2018,06,18,06,16,15.20
2018,06,18,06,17,15.30
2018,06,18,06,18,15.30
2018,06,18,06,19,15.40
2018,06,18,06,20,15.50
2018,06,18,06,21,15.50
2018,06,18,06,22,15.60
2018,06,18,06,23,15.70
2018,06,18,06,24,15.80
2018,06,18,06,25,15.80
2018,06,18,06,26,15.90
2018,06,18,06,27,15.90
2018,06,18,06,28,16.00
2018,06,18,06,29,16.10
2018,06,18,06,30,16.20
2018,06,18,06,31,16.30
2018,06,18,06,32,16.30
2018,06,18,06,33,16.40
2018,06,18,06,34,16.40
2018,06,18,06,35,16.30
2018,06,18,06,36,16.30
2018,06,18,06,37,16.40
2018,06,18,06,38,16.40
2018,06,18,06,39,16.40
2018,06,18,06,40,16.50
2018,06,18,06,41,16.60
2018,06,18,06,42,16.60
2018,06,18,06,43,16.60
2018,06,18,06,44,16.60
2018,06,18,06,45,16.60
2018,06,18,06,46,16.70
2018,06,18,06,47,16.70
2018,06,18,06,48,16.80
2018,06,18,06,49,16.90
2018,06,18,06,50,16.90
2018,06,18,06,51,17.00
2018,06,18,06,52,17.10
2018,06,18,06,53,17.20
2018,06,18,06,54,17.30
2018,06,18,06,55,17.40
2018,06,18,06,56,17.50
2018,06,18,06,57,17.60
2018,06,18,06,58,17.70
2018,06,18,06,59,17.80
2018,06,18,07,00,17.90
2018,06,18,07,01,18.00
2018,06,18,07,02,18.10
2018,06,18,07,03,18.20
2018,06,18,07,04,18.30
2018,06,18,07,05,18.40
2018,06,18,07,06,18.50
2018,06,18,07,07,18.50
2018,06,18,07,08,18.60
2018,06,18,07,09,18.60
2018,06,18,07,10,18.70
2018,06,18,07,11,18.80
2018,06,18,07,12,18.90
2018,06,18,07,13,19.00
2018,06,18,07,14,19.10
2018,06,18,07,15,19.10
2018,06,18,07,16,19.10
2018,06,18,07,17,19.10
2018,06,18,07,18,19.10
2018,06,18,07,19,19.10
2018,06,18,07,20,19.20
2018,06,18,07,21,19.20
2018,06,18,07,22,19.30
2018,06,18,07,23,19.40
2018,06,18,07,24,19.50
2018,06,18,07,25,19.60
2018,06,18,07,26,19.70
2018,06,18,07,27,19.80
2018,06,18,07,28,19.90
2018,06,18,07,29,20.10
2018,06,18,07,30,20.20
2018,06,18,07,31,20.30
2018,06,18,07,32,20.50
2018,06,18,07,33,20.60
2018,06,18,07,34,20.70
2018,06,18,07,35,20.80
2018,06,18,07,36,20.90
2018,06,18,07,37,21.00
2018,06,18,07,38,21.00
2018,06,18,07,39,21.00
2018,06,18,07,40,21.10
2018,06,18,07,41,21.10
2018,06,18,07,42,21.20
2018,06,18,07,43,21.20
2018,06,18,07,44,21.20
2018,06,18,07,45,21.30
2018,06,18,07,46,21.30
2018,06,18,07,47,21.30
2018,06,18,07,48,21.30
2018,06,18,07,49,21.40
2018,06,18,07,50,21.50
2018,06,18,07,51,21.60
2018,06,18,07,52,21.60
2018,06,18,07,53,21.60
2018,06,18,07,54,21.60
2018,06,18,07,55,21.60
2018,06,18,07,56,21.60
2018,06,18,07,57,21.70
2018,06,18,07,58,21.70
2018,06,18,07,59,21.70
2018,06,18,08,00,21.80
2018,06,18,08,01,21.90
2018,06,18,08,02,22.00
2018,06,18,08,03,22.10
2018,06,18,08,04,22.20
2018,06,18,08,05,22.40
2018,06,18,08,06,22.50
2018,06,18,08,07,22.60
2018,06,18,08,08,22.60
2018,06,18,08,09,22.70
2018,06,18,08,10,22.80
2018,06,18,08,11,22.80
2018,06,18,08,12,22.90
2018,06,18,08,13,22.90
2018,06,18,08,14,23.00
2018,06,18,08,15,23.10
2018,06,18,08,16,23.10
2018,06,18,08,17,23.20
2018,06,18,08,18,23.20
2018,06,18,08,19,23.30
2018,06,18,08,20,23.30
2018,06,18,08,21,23.30
2018,06,18,08,22,23.30
2018,06,18,08,23,23.30
2018,06,18,08,24,23.30
2018,06,18,08,25,23.40
2018,06,18,08,26,23.40
2018,06,18,08,27,23.60
2018,06,18,08,28,23.60
2018,06,18,08,29,23.70
2018,06,18,08,30,23.70
2018,06,18,08,31,23.70
2018,06,18,08,32,23.80
2018,06,18,08,33,23.90
2018,06,18,08,34,24.00
2018,06,18,08,35,24.10
2018,06,18,08,36,24.10
2018,06,18,08,37,24.10
2018,06,18,08,38,24.20
2018,06,18,08,39,24.20
2018,06,18,08,40,24.20
2018,06,18,08,41,24.20
2018,06,18,08,42,24.20
2018,06,18,08,43,24.20
2018,06,18,08,44,24.10
2018,06,18,08,45,24.10
2018,06,18,08,46,24.10
2018,06,18,08,47,24.10
2018,06,18,08,48,24.10
2018,06,18,08,49,24.10
2018,06,18,08,50,24.00
2018,06,18,08,51,23.90
2018,06,18,08,52,23.80
2018,06,18,08,53,23.70
2018,06,18,08,54,23.70
2018,06,18,08,55,23.70
2018,06,18,08,56,23.70
2018,06,18,08,57,23.70
2018,06,18,08,58,23.70
2018,06,18,08,59,23.70
2018,06,18,09,00,23.70
2018,06,18,09,01,23.70
2018,06,18,09,02,23.70
2018,06,18,09,03,23.80
2018,06,18,09,04,23.90
2018,06,18,09,05,24.00
2018,06,18,09,06,24.10
2018,06,18,09,07,24.10
2018,06,18,09,08,24.20
2018,06,18,09,09,24.20
2018,06,18,09,10,24.20
2018,06,18,09,11,24.20
2018,06,18,09,12,24.10
2018,06,18,09,13,24.10
2018,06,18,09,14,24.10
2018,06,18,09,15,24.10
2018,06,18,09,16,24.10
2018,06,18,09,17,24.00
2018,06,18,09,18,24.00
2018,06,18,09,19,23.90
2018,06,18,09,20,23.90
2018,06,18,09,21,23.90
2018,06,18,09,22,24.00
2018,06,18,09,23,24.10
2018,06,18,09,24,24.10
2018,06,18,09,25,24.10
2018,06,18,09,26,24.20
2018,06,18,09,27,24.30
2018,06,18,09,28,24.30
2018,06,18,09,29,24.30
2018,06,18,09,30,24.30
2018,06,18,09,31,24.20
2018,06,18,09,32,24.20
2018,06,18,09,33,24.20
2018,06,18,09,34,24.30
2018,06,18,09,35,24.30
2018,06,18,09,36,24.40
2018,06,18,09,37,24.40
2018,06,18,09,38,24.50
2018,06,18,09,39,24.50
2018,06,18,09,40,24.60
2018,06,18,09,41,24.60
2018,06,18,09,42,24.60
2018,06,18,09,43,24.60
2018,06,18,09,44,24.60
2018,06,18,09,45,24.50
2018,06,18,09,46,24.50
2018,06,18,09,47,24.50
2018,06,18,09,48,24.60
2018,06,18,09,49,24.60
2018,06,18,09,50,24.60
2018,06,18,09,51,24.60
2018,06,18,09,52,24.60
2018,06,18,09,53,24.60
2018,06,18,09,54,24.60
2018,06,18,09,55,24.60
2018,06,18,09,56,24.60
2018,06,18,09,57,24.70
2018,06,18,09,58,24.70
2018,06,18,09,59,24.70
2018,06,18,10,00,24.80
2018,06,18,10,01,24.90
2018,06,18,10,02,24.90
2018,06,18,10,03,24.80
2018,06,18,10,04,24.80
2018,06,18,10,05,24.90
2018,06,18,10,06,25.00
2018,06,18,10,07,25.10
2018,06,18,10,08,25.10
2018,06,18,10,09,25.10
2018,06,18,10,10,24.90
2018,06,18,10,11,24.70
2018,06,18,10,12,24.40
2018,06,18,10,13,24.00
2018,06,18,10,14,23.70
2018,06,18,10,15,23.40
2018,06,18,10,16,23.20
2018,06,18,10,17,23.00
2018,06,18,10,18,22.80
2018,06,18,10,19,22.70
2018,06,18,10,20,22.60
2018,06,18,10,21,22.40
2018,06,18,10,22,22.30
2018,06,18,10,23,22.10
2018,06,18,10,24,22.00
2018,06,18,10,25,21.90
2018,06,18,10,26,21.90
2018,06,18,10,27,21.80
2018,06,18,10,28,21.80
2018,06,18,10,29,21.70
2018,06,18,10,30,21.80
2018,06,18,10,31,21.80
2018,06,18,10,32,21.80
2018,06,18,10,33,21.90
2018,06,18,10,34,22.00
2018,06,18,10,35,22.20
2018,06,18,10,36,22.20
2018,06,18,10,37,22.30
2018,06,18,10,38,22.50
2018,06,18,10,39,22.60
2018,06,18,10,40,22.60
2018,06,18,10,41,22.60
2018,06,18,10,42,22.70
2018,06,18,10,43,22.80
2018,06,18,10,44,22.90
2018,06,18,10,45,22.90
2018,06,18,10,46,23.10
2018,06,18,10,47,23.10
2018,06,18,10,48,23.10
2018,06,18,10,49,23.20
2018,06,18,10,50,23.20
2018,06,18,10,51,23.20
2018,06,18,10,52,23.20
2018,06,18,10,53,23.20
2018,06,18,10,54,23.20
2018,06,18,10,55,23.20
2018,06,18,10,56,23.30
2018,06,18,10,57,23.30
2018,06,18,10,58,23.30
2018,06,18,10,59,23.50
2018,06,18,11,00,23.60
2018,06,18,11,01,23.70
2018,06,18,11,02,23.80
2018,06,18,11,03,23.90
2018,06,18,11,04,23.90
2018,06,18,11,05,23.90
2018,06,18,11,06,23.90
2018,06,18,11,07,24.00
2018,06,18,11,08,24.10
2018,06,18,11,09,24.20
2018,06,18,11,10,24.30
2018,06,18,11,11,24.40
2018,06,18,11,12,24.50
2018,06,18,11,13,24.70
2018,06,18,11,14,24.80
2018,06,18,11,15,24.70
2018,06,18,11,16,24.70
2018,06,18,11,17,24.80
2018,06,18,11,18,24.80
2018,06,18,11,19,24.80
2018,06,18,11,20,24.80
2018,06,18,11,21,24.90
2018,06,18,11,22,24.90
2018,06,18,11,23,24.90
2018,06,18,11,24,25.00
2018,06,18,11,25,25.20
2018,06,18,11,26,25.30
2018,06,18,11,27,25.30
2018,06,18,11,28,25.40
2018,06,18,11,29,25.40
2018,06,18,11,30,25.40
2018,06,18,11,31,25.30
2018,06,18,11,32,25.30
2018,06,18,11,33,25.30
2018,06,18,11,34,25.30
2018,06,18,11,35,25.40
2018,06,18,11,36,25.40
2018,06,18,11,37,25.30
2018,06,18,11,38,25.30
2018,06,18,11,39,25.30
2018,06,18,11,40,25.20
2018,06,18,11,41,25.20
2018,06,18,11,42,25.20
2018,06,18,11,43,25.30
2018,06,18,11,44,25.30
2018,06,18,11,45,25.40
2018,06,18,11,46,25.50
2018,06,18,11,47,25.50
2018,06,18,11,48,25.60
2018,06,18,11,49,25.70
2018,06,18,11,50,25.60
2018,06,18,11,51,25.60
2018,06,18,11,52,25.50
2018,06,18,11,53,25.50
2018,06,18,11,54,25.50
2018,06,18,11,55,25.50
2018,06,18,11,56,25.40
2018,06,18,11,57,25.40
2018,06,18,11,58,25.30
2018,06,18,11,59,25.20
2018,06,18,12,00,25.20
2018,06,18,12,01,25.10
2018,06,18,12,02,25.20
2018,06,18,12,03,25.20
2018,06,18,12,04,25.30
2018,06,18,12,05,25.30
2018,06,18,12,06,25.40
2018,06,18,12,07,25.40
2018,06,18,12,08,25.50
2018,06,18,12,09,25.40
2018,06,18,12,10,25.20
2018,06,18,12,11,24.80
2018,06,18,12,12,24.50
2018,06,18,12,13,24.40
2018,06,18,12,14,24.30
2018,06,18,12,15,24.10
2018,06,18,12,16,24.10
2018,06,18,12,17,24.10
2018,06,18,12,18,24.00
2018,06,18,12,19,23.90
2018,06,18,12,20,23.90
2018,06,18,12,21,23.90
2018,06,18,12,22,24.00
2018,06,18,12,23,24.10
2018,06,18,12,24,24.30
2018,06,18,12,25,24.30
2018,06,18,12,26,24.30
2018,06,18,12,27,24.30
2018,06,18,12,28,24.40
2018,06,18,12,29,24.50
2018,06,18,12,30,24.50
2018,06,18,12,31,24.60
2018,06,18,12,32,24.60
2018,06,18,12,33,24.60
2018,06,18,12,34,24.70
2018,06,18,12,35,24.70
2018,06,18,12,36,24.70
2018,06,18,12,37,24.60
2018,06,18,12,38,24.50
2018,06,18,12,39,24.40
2018,06,18,12,40,24.40
2018,06,18,12,41,24.40
2018,06,18,12,42,24.40
2018,06,18,12,43,24.40
2018,06,18,12,44,24.30
2018,06,18,12,45,24.30
2018,06,18,12,46,24.40
2018,06,18,12,47,24.30
2018,06,18,12,48,24.20
2018,06,18,12,49,24.20
2018,06,18,12,50,24.20
2018,06,18,12,51,24.20
2018,06,18,12,52,24.20
2018,06,18,12,53,24.30
2018,06,18,12,54,24.30
2018,06,18,12,55,24.40
2018,06,18,12,56,24.50
2018,06,18,12,57,24.60
2018,06,18,12,58,24.70
2018,06,18,12,59,24.90
2018,06,18,13,00,25.00
2018,06,18,13,01,25.10
2018,06,18,13,02,25.20
2018,06,18,13,03,25.40
2018,06,18,13,04,25.40
2018,06,18,13,05,25.50
2018,06,18,13,06,25.50
2018,06,18,13,07,25.50
2018,06,18,13,08,25.60
2018,06,18,13,09,25.80
2018,06,18,13,10,25.90
2018,06,18,13,11,25.90
2018,06,18,13,12,25.90
2018,06,18,13,13,26.00
2018,06,18,13,14,26.10
2018,06,18,13,15,26.10
2018,06,18,13,16,26.20
2018,06,18,13,17,26.20
2018,06,18,13,18,26.20
2018,06,18,13,19,26.20
2018,06,18,13,20,26.20
2018,06,18,13,21,26.20
2018,06,18,13,22,26.40
2018,06,18,13,23,26.50
2018,06,18,13,24,26.60
2018,06,18,13,25,26.60
2018,06,18,13,26,26.60
2018,06,18,13,27,26.50
2018,06,18,13,28,26.40
2018,06,18,13,29,26.30
2018,06,18,13,30,26.30
2018,06,18,13,31,26.10
2018,06,18,13,32,26.00
2018,06,18,13,33,25.90
2018,06,18,13,34,25.90
2018,06,18,13,35,25.90
2018,06,18,13,36,25.90
2018,06,18,13,37,26.00
2018,06,18,13,38,26.10
2018,06,18,13,39,26.20
2018,06,18,13,40,26.40
2018,06,18,13,41,26.50
2018,06,18,13,42,26.60
2018,06,18,13,43,26.60
2018,06,18,13,44,26.70
2018,06,18,13,45,26.80
2018,06,18,13,46,26.90
2018,06,18,13,47,27.10
2018,06,18,13,48,27.20
2018,06,18,13,49,27.20
2018,06,18,13,50,27.30
2018,06,18,13,51,27.50
2018,06,18,13,52,27.70
2018,06,18,13,53,27.80
2018,06,18,13,54,27.80
2018,06,18,13,55,27.90
2018,06,18,13,56,27.90
2018,06,18,13,57,28.10
2018,06,18,13,58,28.20
2018,06,18,13,59,28.30
2018,06,18,14,00,28.30
2018,06,18,14,01,28.40
2018,06,18,14,02,28.50
2018,06,18,14,03,28.70
2018,06,18,14,04,28.90
2018,06,18,14,05,29.00
2018,06,18,14,06,29.20
2018,06,18,14,07,29.30
2018,06,18,14,08,29.40
2018,06,18,14,09,29.40
2018,06,18,14,10,29.30
2018,06,18,14,11,29.30
2018,06,18,14,12,29.30
2018,06,18,14,13,29.30
2018,06,18,14,14,29.30
2018,06,18,14,15,29.40
2018,06,18,14,16,29.40
2018,06,18,14,17,29.40
2018,06,18,14,18,29.50
2018,06,18,14,19,29.60
2018,06,18,14,20,29.60
2018,06,18,14,21,29.70
2018,06,18,14,22,29.80
2018,06,18,14,23,29.90
2018,06,18,14,24,30.00
2018,06,18,14,25,29.90
2018,06,18,14,26,29.80
2018,06,18,14,27,29.70
2018,06,18,14,28,29.80
2018,06,18,14,29,29.80
2018,06,18,14,30,29.90
2018,06,18,14,31,30.10
2018,06,18,14,32,30.10
2018,06,18,14,33,30.20
2018,06,18,14,34,30.30
2018,06,18,14,35,30.40
2018,06,18,14,36,30.60
2018,06,18,14,37,30.70
2018,06,18,14,38,30.80
2018,06,18,14,39,30.80
2018,06,18,14,40,30.90
2018,06,18,14,41,31.00
2018,06,18,14,42,31.00
2018,06,18,14,43,31.10
2018,06,18,14,44,31.10
2018,06,18,14,45,31.20
2018,06,18,14,46,31.20
2018,06,18,14,47,31.20
2018,06,18,14,48,31.10
2018,06,18,14,49,31.00
2018,06,18,14,50,30.90
2018,06,18,14,51,30.90
2018,06,18,14,52,30.90
2018,06,18,14,53,30.90
2018,06,18,14,54,30.90
2018,06,18,14,55,30.90
2018,06,18,14,56,31.00
2018,06,18,14,57,31.00
2018,06,18,14,58,31.10
2018,06,18,14,59,31.10
2018,06,18,15,00,31.20
2018,06,18,15,01,31.20
2018,06,18,15,02,31.30
2018,06,18,15,03,31.30
2018,06,18,15,04,31.40
2018,06,18,15,05,31.30
2018,06,18,15,06,31.00
2018,06,18,15,07,30.90
2018,06,18,15,08,31.00
2018,06,18,15,09,31.00
2018,06,18,15,10,31.10
2018,06,18,15,11,31.10
2018,06,18,15,12,31.10
2018,06,18,15,13,31.10
2018,06,18,15,14,31.10
2018,06,18,15,15,31.20
2018,06,18,15,16,31.20
2018,06,18,15,17,31.20
2018,06,18,15,18,31.20
2018,06,18,15,19,31.30
2018,06,18,15,20,31.40
2018,06,18,15,21,31.40
2018,06,18,15,22,31.40
2018,06,18,15,23,31.50
2018,06,18,15,24,31.60
2018,06,18,15,25,31.60
2018,06,18,15,26,31.60
2018,06,18,15,27,31.50
2018,06,18,15,28,31.50
2018,06,18,15,29,31.60
2018,06,18,15,30,31.60
2018,06,18,15,31,31.60
2018,06,18,15,32,31.60
2018,06,18,15,33,31.60
2018,06,18,15,34,31.70
2018,06,18,15,35,31.90
2018,06,18,15,36,31.90
2018,06,18,15,37,31.90
2018,06,18,15,38,31.90
2018,06,18,15,39,32.00
2018,06,18,15,40,32.10
2018,06,18,15,41,32.10
2018,06,18,15,42,32.10
2018,06,18,15,43,32.20
2018,06,18,15,44,32.20
2018,06,18,15,45,32.30
2018,06,18,15,46,32.30
2018,06,18,15,47,32.30
2018,06,18,15,48,32.30
2018,06,18,15,49,32.40
2018,06,18,15,50,32.40
2018,06,18,15,51,32.40
2018,06,18,15,52,32.40
2018,06,18,15,53,32.40
2018,06,18,15,54,32.40
2018,06,18,15,55,32.30
2018,06,18,15,56,32.30
2018,06,18,15,57,32.40
2018,06,18,15,58,32.40
2018,06,18,15,59,32.40
2018,06,18,16,00,32.30
2018,06,18,16,01,32.20
2018,06,18,16,02,32.20
2018,06,18,16,03,32.30
2018,06,18,16,04,32.20
2018,06,18,16,05,32.20
2018,06,18,16,06,32.20
2018,06,18,16,07,32.20
2018,06,18,16,08,32.20
2018,06,18,16,09,32.20
2018,06,18,16,10,32.10
2018,06,18,16,11,32.20
2018,06,18,16,12,32.20
2018,06,18,16,13,32.10
2018,06,18,16,14,32.10
2018,06,18,16,15,32.10
2018,06,18,16,16,32.10
2018,06,18,16,17,32.20
2018,06,18,16,18,32.20
2018,06,18,16,19,32.30
2018,06,18,16,20,32.30
2018,06,18,16,21,32.30
2018,06,18,16,22,32.30
2018,06,18,16,23,32.30
2018,06,18,16,24,32.30
2018,06,18,16,25,32.30
2018,06,18,16,26,32.30
2018,06,18,16,27,32.30
2018,06,18,16,28,32.20
2018,06,18,16,29,32.20
2018,06,18,16,30,32.20
2018,06,18,16,31,32.20
2018,06,18,16,32,32.10
2018,06,18,16,33,32.10
2018,06,18,16,34,32.10
2018,06,18,16,35,32.00
2018,06,18,16,36,31.90
2018,06,18,16,37,31.90
2018,06,18,16,38,31.80
2018,06,18,16,39,31.80
2018,06,18,16,40,31.70
2018,06,18,16,41,31.70
2018,06,18,16,42,31.60
2018,06,18,16,43,31.60
2018,06,18,16,44,31.60
2018,06,18,16,45,31.60
2018,06,18,16,46,31.60
2018,06,18,16,47,31.60
2018,06,18,16,48,31.60
2018,06,18,16,49,31.60
2018,06,18,16,50,31.60
2018,06,18,16,51,31.60
2018,06,18,16,52,31.60
2018,06,18,16,53,31.50
2018,06,18,16,54,31.60
2018,06,18,16,55,31.60
2018,06,18,16,56,31.50
2018,06,18,16,57,31.40
2018,06,18,16,58,31.30
2018,06,18,16,59,31.30
2018,06,18,17,00,31.20
2018,06,18,17,01,31.00
2018,06,18,17,02,31.00
2018,06,18,17,03,31.00
2018,06,18,17,04,31.00
2018,06,18,17,05,30.90
2018,06,18,17,06,30.90
2018,06,18,17,07,30.90
2018,06,18,17,08,30.80
2018,06,18,17,09,30.80
2018,06,18,17,10,30.70
2018,06,18,17,11,30.70
2018,06,18,17,12,30.70
2018,06,18,17,13,30.60
2018,06,18,17,14,30.60
2018,06,18,17,15,30.50
2018,06,18,17,16,30.40
2018,06,18,17,17,30.40
2018,06,18,17,18,30.30
2018,06,18,17,19,30.30